Location: Cedar Springs
(43.2230°N, 85.5510°W)
Time: 23:10:17
(UTC-04:00)

Cosmos 2278 Rocket - Visible Passes

Search period start: 29 August 2016 00:00
Search period end: 08 September 2016 00:00
Orbit: 840 x 846 km, 71.0° (Epoch: 28 August)

Date Brightness Start Highest point End Pass type
(mag) Time Alt. Az. Time Alt. Az. Time Alt. Az.
29 Aug 3.7 00:36:46 10° N 00:40:20 30° NNE 00:40:20 30° NNE visible
29 Aug 4.5 02:20:57 10° NW 02:22:10 16° NW 02:22:10 16° NW visible
30 Aug 3.7 00:22:16 10° N 00:25:52 30° NNE 00:25:52 30° NNE visible
30 Aug 4.5 02:06:23 10° NW 02:07:41 17° NW 02:07:41 17° NW visible
31 Aug 3.7 00:07:46 10° N 00:11:26 29° NNE 00:11:26 29° NNE visible
31 Aug 4.4 01:51:49 10° NW 01:53:16 17° NW 01:53:16 17° NW visible
31 Aug 3.6 23:53:16 10° N 23:57:01 29° NNE 23:57:01 29° NNE visible
01 Sep 4.4 01:37:15 10° NW 01:38:51 18° NW 01:38:51 18° NW visible
01 Sep 3.6 23:38:47 10° N 23:42:38 29° NNE 23:42:38 29° NNE visible
02 Sep 4.3 01:22:42 10° NW 01:24:28 20° NW 01:24:28 20° NW visible
02 Sep 3.6 23:24:16 10° N 23:28:17 29° NE 23:28:17 29° NE visible
03 Sep 4.3 01:08:09 10° NW 01:10:07 21° NW 01:10:07 21° NW visible
03 Sep 3.5 23:09:47 10° N 23:13:57 28° NE 23:13:57 28° NE visible
04 Sep 4.2 00:53:35 10° NW 00:55:47 23° NW 00:55:47 23° NW visible
04 Sep 3.5 22:55:17 10° N 22:59:39 28° NE 22:59:39 28° NE visible
05 Sep 4.1 00:39:03 10° NW 00:41:29 25° NW 00:41:29 25° NW visible
05 Sep 3.5 22:40:48 10° N 22:45:23 27° NE 22:45:23 27° NE visible
06 Sep 3.9 00:24:29 10° NW 00:27:13 28° NW 00:27:13 28° NW visible
06 Sep 3.4 22:26:18 10° N 22:31:03 26° NE 22:31:08 26° NE visible
07 Sep 3.8 00:09:57 10° NW 00:12:58 31° NW 00:12:58 31° NW visible
07 Sep 3.4 22:11:49 10° N 22:16:29 26° NE 22:16:55 25° ENE visible
